TimeCDT,TemperatureF,Dew PointF,Humidity,Sea Level PressureIn,VisibilityMPH,Wind Direction,Wind SpeedMPH,Gust SpeedMPH,PrecipitationIn,Events,Conditions,WindDirDegrees,DateUTC
12:15 AM,53.6,44.6,72,30.08,10.0,SE,6.9,-,N/A,,Clear,140,2012-10-09 05:15:00
12:55 AM,55.4,46.4,72,30.06,10.0,SE,8.1,-,N/A,,Clear,140,2012-10-09 05:55:00
1:15 AM,53.6,46.4,77,30.06,10.0,SE,9.2,-,N/A,,Clear,140,2012-10-09 06:15:00
1:55 AM,53.6,46.4,77,30.06,10.0,SE,9.2,-,N/A,,Clear,130,2012-10-09 06:55:00
2:55 AM,53.6,46.4,77,30.05,10.0,SE,9.2,-,N/A,,Clear,140,2012-10-09 07:55:00
3:15 AM,53.6,46.4,77,30.04,10.0,SE,10.4,-,N/A,,Clear,140,2012-10-09 08:15:00
3:35 AM,53.6,46.4,77,30.03,10.0,SE,12.7,-,N/A,,Scattered Clouds,140,2012-10-09 08:35:00
3:55 AM,55.4,48.2,77,30.03,10.0,SE,11.5,17.3,N/A,,Overcast,130,2012-10-09 08:55:00
4:15 AM,55.4,48.2,77,30.03,10.0,SE,10.4,-,N/A,,Overcast,140,2012-10-09 09:15:00
4:35 AM,55.4,48.2,77,30.01,10.0,SE,10.4,-,N/A,,Overcast,130,2012-10-09 09:35:00
4:55 AM,55.4,50.0,82,30.02,10.0,SE,11.5,-,N/A,,Overcast,140,2012-10-09 09:55:00
5:15 AM,55.4,50.0,82,30.02,10.0,SE,11.5,-,N/A,,Overcast,140,2012-10-09 10:15:00
5:35 AM,57.2,50.0,77,30.02,10.0,SSE,11.5,-,N/A,,Overcast,150,2012-10-09 10:35:00
5:55 AM,57.2,50.0,77,30.02,10.0,SE,12.7,-,N/A,,Overcast,130,2012-10-09 10:55:00
6:15 AM,57.2,50.0,77,30.03,10.0,SE,9.2,-,N/A,,Overcast,130,2012-10-09 11:15:00
6:55 AM,57.2,50.0,77,30.04,10.0,SE,10.4,-,N/A,,Overcast,140,2012-10-09 11:55:00
7:15 AM,59.0,50.0,72,30.04,10.0,SE,10.4,-,N/A,,Overcast,140,2012-10-09 12:15:00
7:35 AM,57.2,50.0,77,30.04,10.0,SE,9.2,-,N/A,,Overcast,140,2012-10-09 12:35:00
7:55 AM,57.2,51.8,82,30.04,10.0,SE,10.4,-,N/A,,Overcast,140,2012-10-09 12:55:00
8:15 AM,59.0,51.8,77,30.04,10.0,SE,10.4,-,N/A,,Overcast,140,2012-10-09 13:15:00
8:35 AM,59.0,51.8,77,30.03,10.0,SE,11.5,-,N/A,,Overcast,140,2012-10-09 13:35:00
8:55 AM,59.0,51.8,77,30.04,10.0,SSE,12.7,17.3,N/A,,Overcast,150,2012-10-09 13:55:00
9:15 AM,60.8,51.8,72,30.04,10.0,SSE,15.0,-,N/A,,Overcast,150,2012-10-09 14:15:00
9:35 AM,60.8,51.8,72,30.04,10.0,SSE,13.8,-,N/A,,Overcast,150,2012-10-09 14:35:00
10:15 AM,62.6,51.8,68,30.05,10.0,SSE,12.7,-,N/A,,Overcast,160,2012-10-09 15:15:00
10:35 AM,64.4,53.6,68,30.04,10.0,SSE,13.8,20.7,N/A,,Overcast,160,2012-10-09 15:35:00
10:55 AM,64.4,53.6,68,30.04,10.0,SSE,18.4,23.0,N/A,,Overcast,160,2012-10-09 15:55:00
11:35 AM,64.4,53.6,68,30.03,10.0,South,17.3,24.2,N/A,,Overcast,180,2012-10-09 16:35:00
12:15 PM,69.8,55.4,60,30.01,10.0,South,17.3,23.0,N/A,,Overcast,170,2012-10-09 17:15:00
12:55 PM,69.8,55.4,60,29.99,10.0,South,18.4,23.0,N/A,,Overcast,180,2012-10-09 17:55:00
1:35 PM,71.6,59.0,64,29.96,10.0,South,20.7,26.5,N/A,,Overcast,180,2012-10-09 18:35:00
2:15 PM,73.4,59.0,61,29.95,10.0,South,19.6,27.6,N/A,,Overcast,190,2012-10-09 19:15:00
2:55 PM,77.0,60.8,57,29.92,10.0,South,20.7,27.6,N/A,,Mostly Cloudy,190,2012-10-09 19:55:00
3:15 PM,77.0,60.8,57,29.91,10.0,South,17.3,25.3,N/A,,Mostly Cloudy,190,2012-10-09 20:15:00
3:35 PM,78.8,60.8,54,29.90,10.0,South,21.9,27.6,N/A,,Mostly Cloudy,190,2012-10-09 20:35:00
3:55 PM,80.6,60.8,51,29.90,10.0,South,23.0,26.5,N/A,,Scattered Clouds,190,2012-10-09 20:55:00
4:15 PM,78.8,60.8,54,29.89,10.0,South,17.3,24.2,N/A,,Scattered Clouds,180,2012-10-09 21:15:00
4:35 PM,80.6,60.8,51,29.88,10.0,South,19.6,23.0,N/A,,Clear,180,2012-10-09 21:35:00
4:55 PM,80.6,60.8,51,29.88,10.0,South,19.6,25.3,N/A,,Clear,170,2012-10-09 21:55:00
5:35 PM,80.6,60.8,51,29.88,10.0,South,17.3,24.2,N/A,,Clear,180,2012-10-09 22:35:00
6:15 PM,80.6,60.8,51,29.87,10.0,South,17.3,-,N/A,,Clear,180,2012-10-09 23:15:00
6:55 PM,77.0,60.8,57,29.88,10.0,South,15.0,-,N/A,,Clear,170,2012-10-09 23:55:00
7:35 PM,75.2,60.8,61,29.90,10.0,SSE,6.9,-,N/A,,Clear,160,2012-10-10 00:35:00
8:15 PM,73.4,60.8,65,29.91,10.0,SSE,9.2,-,N/A,,Clear,160,2012-10-10 01:15:00
8:55 PM,71.6,60.8,69,29.93,10.0,SSE,10.4,-,N/A,,Clear,160,2012-10-10 01:55:00
9:35 PM,71.6,60.8,69,29.94,10.0,South,10.4,-,N/A,,Clear,170,2012-10-10 02:35:00
10:15 PM,71.6,60.8,69,29.95,10.0,South,10.4,-,N/A,,Clear,170,2012-10-10 03:15:00
10:55 PM,71.6,60.8,69,29.96,10.0,South,9.2,-,N/A,,Clear,180,2012-10-10 03:55:00
11:35 PM,68.0,60.8,78,29.97,10.0,South,3.5,-,N/A,,Clear,170,2012-10-10 04:35:00